Location: Leuk
(46.3174°N, 7.6341°E)
Time: 15:21:13
(UTC+00:00)

ATLAS 5 CENTAUR R/B - Pass Details

Date: 09 March 2021
Orbit: 516 x 1142 km, 63.3° (Epoch: 13 April)

Event Time Altitude Azimuth Distance (km) Brightness Sun altitude
Exits shadow 03:19:16 18° 136° (SE) 1,371 3.5 -26.9°
Maximum altitude 03:20:22 20° 114° (ESE) 1,308 3.6 -26.7°
Drops below altitude 10° 03:23:30 10° 66° (ENE) 1,921 5.1 -26.3°
Sets 03:26:20 0° 50° (NE) 2,925 6.2 -25.8°
